STARLINK-32040, 60109

Orbit data source: Space-Track

STARLINK-32040, 60109 is a payload satellite owned by SpaceX/Seattle (US) in LEO that was launched on Sun, 23 Jun 2024 UTC via an FALCON 9 launch vehicle from the Air Force Eastern Test Range (AFETR). Payload-class satellites include a variety of spacecraft equipped with specific instruments for various scientific and technological missions. These include communications satellites like Starlink; space stations such as the ISS; scientific satellites like the Hubble; Earth observation satellites from companies like Planet Labs, Umbra, and HawkEye 360; GPS; miniature CubeSats for education and research; and military/defense satellites.

Loading next visibility...
Identifier
60109, 2024-117U
Orbit
LEO
Country
Flag of USUS
Related business
Manufacturer
SpaceX/Seattle
Mission
Operational Commercial Communications
Bus & Motor
STARLINK V2M, Unknown motor
Mass
730 kg wet, ~700 kg dry
Launch date (UTC)
2024-06-23 (2 years ago)
Launch vehicle
FALCON 9
Launch site
Air Force Eastern Test Range (AFETR)
Object type
Payload
Rocket body
Debris
Shape & HBR
Box + 2 Pan, 17.7 m
Radar Cross Section
33.884 m², Large (>1 m²)

Expand to show TLE details & history
Last TLE update: 10 hours ago

TLE from 10 hours ago
0 STARLINK-32040
1 60109U 24117U   26171.44387132 -.00001966  00000-0 -54265-4 0  9990
2 60109  53.1602 279.4860 0001178  80.1467 279.9667 15.30194195112620
Epoch: 2026-06-20T10:39Z
TLE epoch observation values (Epoch: 2026-06-20T10:39:10.482Z)
Latitude
0.00002°
Longitude
-148.96607°
Altitude
475.992 km
Speed
7.629 km/s
True Right ascension
18h 37m 56s
True Declination
0° 00' 00"
Sunlit
Object was in full shadow at epoch
Visualization orbit readout
Latitude
Unknown
Longitude
Unknown
Altitude
Unknown
Speed
Unknown
Apparent Right ascension
Unknown
Apparent Declination
Unknown
Sunlit
N/A
Visualization observer readout
Local Sidereal Time
07:12:26
Azimuth
Unknown
Elevation
Unknown
Doppler factor
Unknown
Orbital elements
Apogee altitude
476.296 km
Perigee altitude
474.681 km
Semi-major axis
6,853.626 km
Eccentricity
0.00012
Inclination
53.1602°
RAAN
279.486°
Arg. of periapsis
80.1467°
True anomaly
279.9534°
Mean anomaly
279.9667°
Eccentric anomaly
279.96005°
Mean motion
3.82527 °/min
Orbital period
94.11 mins
BSTAR
-0.000054265
Loading maneuver chart data...
Computing Atmospheric mass density...
Loading historical data...
Loading historical data...
Loading historical data...
Loading historical data...
Loading historical data...
Loading historical data...
Loading historical data...

Documentation

Showing up to 5 results
|